TimeCDT,TemperatureF,Dew PointF,Humidity,Sea Level PressureIn,VisibilityMPH,Wind Direction,Wind SpeedMPH,Gust SpeedMPH,PrecipitationIn,Events,Conditions,WindDirDegrees,DateUTC
12:53 AM,82.9,69.1,63,30.01,10.0,South,5.8,-,N/A,,Clear,170,2013-08-05 05:53:00
1:53 AM,82.0,66.9,60,30.01,10.0,South,8.1,-,N/A,,Clear,180,2013-08-05 06:53:00
2:53 AM,80.1,66.9,64,30.00,10.0,South,10.4,-,N/A,,Clear,180,2013-08-05 07:53:00
3:53 AM,78.1,64.9,64,30.00,10.0,South,5.8,-,N/A,,Clear,170,2013-08-05 08:53:00
4:53 AM,75.9,64.9,69,30.01,10.0,South,4.6,-,N/A,,Clear,180,2013-08-05 09:53:00
5:53 AM,75.9,64.9,69,30.00,10.0,South,5.8,-,N/A,,Clear,180,2013-08-05 10:53:00
6:53 AM,73.9,66.0,76,30.01,10.0,South,5.8,-,N/A,,Clear,170,2013-08-05 11:53:00
7:53 AM,75.0,68.0,79,30.02,10.0,South,6.9,-,N/A,,Clear,170,2013-08-05 12:53:00
8:53 AM,77.0,69.1,76,30.03,10.0,South,5.8,-,N/A,,Clear,180,2013-08-05 13:53:00
9:53 AM,81.0,69.1,67,30.03,10.0,South,9.2,-,N/A,,Clear,180,2013-08-05 14:53:00
10:53 AM,84.9,68.0,57,30.03,10.0,South,8.1,-,N/A,,Clear,180,2013-08-05 15:53:00
11:53 AM,88.0,66.9,49,30.01,10.0,SSW,9.2,-,N/A,,Clear,200,2013-08-05 16:53:00
12:53 PM,91.0,66.9,45,29.99,10.0,South,9.2,-,N/A,,Clear,190,2013-08-05 17:53:00
1:53 PM,93.9,64.0,37,29.96,10.0,South,11.5,-,N/A,,Clear,180,2013-08-05 18:53:00
2:53 PM,96.1,62.1,32,29.94,10.0,SE,8.1,17.3,N/A,,Clear,140,2013-08-05 19:53:00
3:53 PM,97.0,61.0,30,29.91,10.0,SW,5.8,-,N/A,,Clear,230,2013-08-05 20:53:00
4:53 PM,97.0,59.0,28,29.90,10.0,SSW,8.1,-,N/A,,Clear,200,2013-08-05 21:53:00
5:53 PM,97.0,60.1,29,29.88,10.0,SSW,9.2,-,N/A,,Clear,200,2013-08-05 22:53:00
6:53 PM,96.1,61.0,31,29.87,10.0,SSE,5.8,-,N/A,,Clear,150,2013-08-05 23:53:00
7:53 PM,93.9,60.1,32,29.87,10.0,SSE,5.8,-,N/A,,Clear,160,2013-08-06 00:53:00
8:53 PM,90.0,62.1,39,29.87,10.0,SE,4.6,-,N/A,,Clear,140,2013-08-06 01:53:00
9:53 PM,88.0,62.1,42,29.88,10.0,SSE,6.9,-,N/A,,Clear,160,2013-08-06 02:53:00
10:53 PM,87.1,66.0,49,29.90,10.0,SSE,8.1,-,N/A,,Clear,160,2013-08-06 03:53:00
11:53 PM,84.9,66.9,55,29.91,10.0,SSE,8.1,-,N/A,,Clear,160,2013-08-06 04:53:00